Year,Month,Day,Hour,Minute,Value (Times are PST for temperature in C)
2013,05,04,00,00,10.30
2013,05,04,00,01,10.20
2013,05,04,00,02,10.20
2013,05,04,00,03,10.20
2013,05,04,00,04,10.30
2013,05,04,00,05,10.20
2013,05,04,00,06,10.20
2013,05,04,00,07,10.20
2013,05,04,00,08,10.20
2013,05,04,00,09,10.20
2013,05,04,00,10,10.20
2013,05,04,00,11,10.20
2013,05,04,00,12,10.10
2013,05,04,00,13,10.10
2013,05,04,00,14,10.10
2013,05,04,00,15,10.10
2013,05,04,00,16,10.00
2013,05,04,00,17,10.00
2013,05,04,00,18,9.90
2013,05,04,00,19,9.90
2013,05,04,00,20,9.90
2013,05,04,00,21,9.80
2013,05,04,00,22,9.80
2013,05,04,00,23,9.80
2013,05,04,00,24,9.80
2013,05,04,00,25,9.80
2013,05,04,00,26,9.80
2013,05,04,00,27,9.70
2013,05,04,00,28,9.70
2013,05,04,00,29,9.70
2013,05,04,00,30,9.70
2013,05,04,00,31,9.70
2013,05,04,00,32,9.70
2013,05,04,00,33,9.70
2013,05,04,00,34,9.70
2013,05,04,00,35,9.70
2013,05,04,00,36,9.70
2013,05,04,00,37,9.70
2013,05,04,00,38,9.70
2013,05,04,00,39,9.70
2013,05,04,00,40,9.70
2013,05,04,00,41,9.70
2013,05,04,00,42,9.70
2013,05,04,00,43,9.70
2013,05,04,00,44,9.70
2013,05,04,00,45,9.70
2013,05,04,00,46,9.70
2013,05,04,00,47,9.70
2013,05,04,00,48,9.60
2013,05,04,00,49,9.60
2013,05,04,00,50,9.50
2013,05,04,00,51,9.40
2013,05,04,00,52,9.40
2013,05,04,00,53,9.30
2013,05,04,00,54,9.30
2013,05,04,00,55,9.30
2013,05,04,00,56,9.30
2013,05,04,00,57,9.20
2013,05,04,00,58,9.20
2013,05,04,00,59,9.20
2013,05,04,01,00,9.20
2013,05,04,01,01,9.20
2013,05,04,01,02,9.20
2013,05,04,01,03,9.10
2013,05,04,01,04,9.10
2013,05,04,01,05,9.10
2013,05,04,01,06,9.10
2013,05,04,01,07,9.10
2013,05,04,01,08,9.10
2013,05,04,01,09,9.10
2013,05,04,01,10,9.10
2013,05,04,01,11,9.10
2013,05,04,01,12,9.10
2013,05,04,01,13,9.10
2013,05,04,01,14,9.10
2013,05,04,01,15,9.10
2013,05,04,01,16,9.10
2013,05,04,01,17,9.10
2013,05,04,01,18,9.10
2013,05,04,01,19,9.10
2013,05,04,01,20,9.10
2013,05,04,01,21,9.00
2013,05,04,01,22,9.00
2013,05,04,01,23,9.00
2013,05,04,01,24,9.00
2013,05,04,01,25,9.00
2013,05,04,01,26,8.90
2013,05,04,01,27,8.90
2013,05,04,01,28,8.90
2013,05,04,01,29,8.90
2013,05,04,01,30,8.80
2013,05,04,01,31,8.80
2013,05,04,01,32,8.80
2013,05,04,01,33,8.80
2013,05,04,01,34,8.80
2013,05,04,01,35,8.80
2013,05,04,01,36,8.70
2013,05,04,01,37,8.70
2013,05,04,01,38,8.70
2013,05,04,01,39,8.70
2013,05,04,01,40,8.60
2013,05,04,01,41,8.60
2013,05,04,01,42,8.60
2013,05,04,01,43,8.50
2013,05,04,01,44,8.50
2013,05,04,01,45,8.40
2013,05,04,01,46,8.40
2013,05,04,01,47,8.40
2013,05,04,01,48,8.40
2013,05,04,01,49,8.40
2013,05,04,01,50,8.40
2013,05,04,01,51,8.40
2013,05,04,01,52,8.40
2013,05,04,01,53,8.30
2013,05,04,01,54,8.30
2013,05,04,01,55,8.30
2013,05,04,01,56,8.30
2013,05,04,01,57,8.30
2013,05,04,01,58,8.30
2013,05,04,01,59,8.30
2013,05,04,02,00,8.30
2013,05,04,02,01,8.30
2013,05,04,02,02,8.30
2013,05,04,02,03,8.30
2013,05,04,02,04,8.30
2013,05,04,02,05,8.30
2013,05,04,02,06,8.30
2013,05,04,02,07,8.20
2013,05,04,02,08,8.20
2013,05,04,02,09,8.20
2013,05,04,02,10,8.20
2013,05,04,02,11,8.20
2013,05,04,02,12,8.20
2013,05,04,02,13,8.10
2013,05,04,02,14,8.10
2013,05,04,02,15,8.10
2013,05,04,02,16,8.10
2013,05,04,02,17,8.00
2013,05,04,02,18,8.00
2013,05,04,02,19,8.00
2013,05,04,02,20,8.00
2013,05,04,02,21,7.90
2013,05,04,02,22,7.90
2013,05,04,02,23,7.90
2013,05,04,02,24,7.90
2013,05,04,02,25,7.90
2013,05,04,02,26,7.90
2013,05,04,02,27,7.80
2013,05,04,02,28,7.80
2013,05,04,02,29,7.80
2013,05,04,02,30,7.80
2013,05,04,02,31,7.80
2013,05,04,02,32,7.80
2013,05,04,02,33,7.80
2013,05,04,02,34,7.80
2013,05,04,02,35,7.80
2013,05,04,02,36,7.80
2013,05,04,02,37,7.70
2013,05,04,02,38,7.70
2013,05,04,02,39,7.70
2013,05,04,02,40,7.60
2013,05,04,02,41,7.60
2013,05,04,02,42,7.60
2013,05,04,02,43,7.50
2013,05,04,02,44,7.40
2013,05,04,02,45,7.40
2013,05,04,02,46,7.30
2013,05,04,02,47,7.30
2013,05,04,02,48,7.20
2013,05,04,02,49,7.20
2013,05,04,02,50,7.20
2013,05,04,02,51,7.20
2013,05,04,02,52,7.20
2013,05,04,02,53,7.20
2013,05,04,02,54,7.30
2013,05,04,02,55,7.30
2013,05,04,02,56,7.30
2013,05,04,02,57,7.40
2013,05,04,02,58,7.40
2013,05,04,02,59,7.40
2013,05,04,03,00,7.50
2013,05,04,03,01,7.50
2013,05,04,03,02,7.50
2013,05,04,03,03,7.50
2013,05,04,03,04,7.50
2013,05,04,03,05,7.60
2013,05,04,03,06,7.60
2013,05,04,03,07,7.60
2013,05,04,03,08,7.60
2013,05,04,03,09,7.60
2013,05,04,03,10,7.50
2013,05,04,03,11,7.50
2013,05,04,03,12,7.40
2013,05,04,03,13,7.40
2013,05,04,03,14,7.30
2013,05,04,03,15,7.20
2013,05,04,03,16,7.20
2013,05,04,03,17,7.20
2013,05,04,03,18,7.20
2013,05,04,03,19,7.20
2013,05,04,03,20,7.20
2013,05,04,03,21,7.10
2013,05,04,03,22,7.10
2013,05,04,03,23,7.10
2013,05,04,03,24,7.10
2013,05,04,03,25,7.10
2013,05,04,03,26,7.10
2013,05,04,03,27,7.00
2013,05,04,03,28,6.90
2013,05,04,03,29,6.80
2013,05,04,03,30,6.80
2013,05,04,03,31,6.70
2013,05,04,03,32,6.70
2013,05,04,03,33,6.70
2013,05,04,03,34,6.60
2013,05,04,03,35,6.60
2013,05,04,03,36,6.60
2013,05,04,03,37,6.60
2013,05,04,03,38,6.60
2013,05,04,03,39,6.60
2013,05,04,03,40,6.50
2013,05,04,03,41,6.50
2013,05,04,03,42,6.50
2013,05,04,03,43,6.40
2013,05,04,03,44,6.40
2013,05,04,03,45,6.40
2013,05,04,03,46,6.40
2013,05,04,03,47,6.40
2013,05,04,03,48,6.40
2013,05,04,03,49,6.40
2013,05,04,03,50,6.40
2013,05,04,03,51,6.50
2013,05,04,03,52,6.50
2013,05,04,03,53,6.60
2013,05,04,03,54,6.60
2013,05,04,03,55,6.60
2013,05,04,03,56,6.60
2013,05,04,03,57,6.60
2013,05,04,03,58,6.60
2013,05,04,03,59,6.60
2013,05,04,04,00,6.60
2013,05,04,04,01,6.60
2013,05,04,04,02,6.60
2013,05,04,04,03,6.60
2013,05,04,04,04,6.60
2013,05,04,04,05,6.50
2013,05,04,04,06,6.50
2013,05,04,04,07,6.50
2013,05,04,04,08,6.50
2013,05,04,04,09,6.50
2013,05,04,04,10,6.40
2013,05,04,04,11,6.40
2013,05,04,04,12,6.40
2013,05,04,04,13,6.40
2013,05,04,04,14,6.40
2013,05,04,04,15,6.40
2013,05,04,04,16,6.40
2013,05,04,04,17,6.40
2013,05,04,04,18,6.40
2013,05,04,04,19,6.40
2013,05,04,04,20,6.40
2013,05,04,04,21,6.40
2013,05,04,04,22,6.30
2013,05,04,04,23,6.30
2013,05,04,04,24,6.30
2013,05,04,04,25,6.30
2013,05,04,04,26,6.30
2013,05,04,04,27,6.30
2013,05,04,04,28,6.30
2013,05,04,04,29,6.30
2013,05,04,04,30,6.30
2013,05,04,04,31,6.20
2013,05,04,04,32,6.20
2013,05,04,04,33,6.20
2013,05,04,04,34,6.10
2013,05,04,04,35,6.10
2013,05,04,04,36,6.10
2013,05,04,04,37,6.10
2013,05,04,04,38,6.10
2013,05,04,04,39,6.10
2013,05,04,04,40,6.20
2013,05,04,04,41,6.20
2013,05,04,04,42,6.20
2013,05,04,04,43,6.20
2013,05,04,04,44,6.20
2013,05,04,04,45,6.30
2013,05,04,04,46,6.20
2013,05,04,04,47,6.20
2013,05,04,04,48,6.20
2013,05,04,04,49,6.20
2013,05,04,04,50,6.20
2013,05,04,04,51,6.10
2013,05,04,04,52,6.10
2013,05,04,04,53,6.00
2013,05,04,04,54,6.00
2013,05,04,04,55,5.90
2013,05,04,04,56,5.90
2013,05,04,04,57,5.90
2013,05,04,04,58,5.80
2013,05,04,04,59,5.80
2013,05,04,05,00,5.80
2013,05,04,05,01,5.80
2013,05,04,05,02,5.80
2013,05,04,05,03,5.70
2013,05,04,05,04,5.70
2013,05,04,05,05,5.70
2013,05,04,05,06,5.70
2013,05,04,05,07,5.70
2013,05,04,05,08,5.70
2013,05,04,05,09,5.70
2013,05,04,05,10,5.70
2013,05,04,05,11,5.70
2013,05,04,05,12,5.60
2013,05,04,05,13,5.60
2013,05,04,05,14,5.60
2013,05,04,05,15,5.60
2013,05,04,05,16,5.60
2013,05,04,05,17,5.50
2013,05,04,05,18,5.50
2013,05,04,05,19,5.50
2013,05,04,05,20,5.50
2013,05,04,05,21,5.50
2013,05,04,05,22,5.50
2013,05,04,05,23,5.60
2013,05,04,05,24,5.60
2013,05,04,05,25,5.60
2013,05,04,05,26,5.60
2013,05,04,05,27,5.60
2013,05,04,05,28,5.60
2013,05,04,05,29,5.60
2013,05,04,05,30,5.60
2013,05,04,05,31,5.60
2013,05,04,05,32,5.70
2013,05,04,05,33,5.70
2013,05,04,05,34,5.70
2013,05,04,05,35,5.70
2013,05,04,05,36,5.80
2013,05,04,05,37,5.80
2013,05,04,05,38,5.80
2013,05,04,05,39,5.80
2013,05,04,05,40,5.80
2013,05,04,05,41,5.80
2013,05,04,05,42,5.80
2013,05,04,05,43,5.80
2013,05,04,05,44,5.80
2013,05,04,05,45,5.80
2013,05,04,05,46,5.80
2013,05,04,05,47,5.70
2013,05,04,05,48,5.60
2013,05,04,05,49,5.50
2013,05,04,05,50,5.40
2013,05,04,05,51,5.30
2013,05,04,05,52,5.30
2013,05,04,05,53,5.20
2013,05,04,05,54,5.20
2013,05,04,05,55,5.20
2013,05,04,05,56,5.20
2013,05,04,05,57,5.20
2013,05,04,05,58,5.20
2013,05,04,05,59,5.30
2013,05,04,06,00,5.30
2013,05,04,06,01,5.30
2013,05,04,06,02,5.30
2013,05,04,06,03,5.30
2013,05,04,06,04,5.30
2013,05,04,06,05,5.40
2013,05,04,06,06,5.50
2013,05,04,06,07,5.50
2013,05,04,06,08,5.60
2013,05,04,06,09,5.60
2013,05,04,06,10,5.50
2013,05,04,06,11,5.50
2013,05,04,06,12,5.40
2013,05,04,06,13,5.40
2013,05,04,06,14,5.40
2013,05,04,06,15,5.30
2013,05,04,06,16,5.30
2013,05,04,06,17,5.30
2013,05,04,06,18,5.20
2013,05,04,06,19,5.20
2013,05,04,06,20,5.20
2013,05,04,06,21,5.20
2013,05,04,06,22,5.20
2013,05,04,06,23,5.20
2013,05,04,06,24,5.20
2013,05,04,06,25,5.20
2013,05,04,06,26,5.10
2013,05,04,06,27,5.10
2013,05,04,06,28,5.10
2013,05,04,06,29,5.10
2013,05,04,06,30,5.10
2013,05,04,06,31,5.10
2013,05,04,06,32,5.20
2013,05,04,06,33,5.20
2013,05,04,06,34,5.30
2013,05,04,06,35,5.30
2013,05,04,06,36,5.40
2013,05,04,06,37,5.40
2013,05,04,06,38,5.50
2013,05,04,06,39,5.60
2013,05,04,06,40,5.60
2013,05,04,06,41,5.70
2013,05,04,06,42,5.70
2013,05,04,06,43,5.70
2013,05,04,06,44,5.70
2013,05,04,06,45,5.80
2013,05,04,06,46,5.80
2013,05,04,06,47,5.80
2013,05,04,06,48,5.80
2013,05,04,06,49,5.80
2013,05,04,06,50,5.80
2013,05,04,06,51,5.90
2013,05,04,06,52,5.90
2013,05,04,06,53,5.90
2013,05,04,06,54,5.90
2013,05,04,06,55,6.10
2013,05,04,06,56,6.20
2013,05,04,06,57,6.30
2013,05,04,06,58,6.40
2013,05,04,06,59,6.50
2013,05,04,07,00,6.50
2013,05,04,07,01,6.60
2013,05,04,07,02,6.70
2013,05,04,07,03,6.80
2013,05,04,07,04,6.80
2013,05,04,07,05,6.90
2013,05,04,07,06,7.00
2013,05,04,07,07,7.10
2013,05,04,07,08,7.20
2013,05,04,07,09,7.40
2013,05,04,07,10,7.50
2013,05,04,07,11,7.60
2013,05,04,07,12,7.70
2013,05,04,07,13,7.80
2013,05,04,07,14,7.90
2013,05,04,07,15,8.00
2013,05,04,07,16,8.10
2013,05,04,07,17,8.20
2013,05,04,07,18,8.20
2013,05,04,07,19,8.30
2013,05,04,07,20,8.30
2013,05,04,07,21,8.40
2013,05,04,07,22,8.40
2013,05,04,07,23,8.50
2013,05,04,07,24,8.60
2013,05,04,07,25,8.70
2013,05,04,07,26,8.80
2013,05,04,07,27,8.90
2013,05,04,07,28,8.90
2013,05,04,07,29,9.00
2013,05,04,07,30,9.10
2013,05,04,07,31,9.20
2013,05,04,07,32,9.30
2013,05,04,07,33,9.40
2013,05,04,07,34,9.50
2013,05,04,07,35,9.60
2013,05,04,07,36,9.80
2013,05,04,07,37,9.90
2013,05,04,07,38,10.00
2013,05,04,07,39,10.20
2013,05,04,07,40,10.40
2013,05,04,07,41,10.60
2013,05,04,07,42,10.70
2013,05,04,07,43,10.90
2013,05,04,07,44,11.00
2013,05,04,07,45,11.10
2013,05,04,07,46,11.30
2013,05,04,07,47,11.40
2013,05,04,07,48,11.50
2013,05,04,07,49,11.60
2013,05,04,07,50,11.80
2013,05,04,07,51,11.90
2013,05,04,07,52,12.10
2013,05,04,07,53,12.30
2013,05,04,07,54,12.50
2013,05,04,07,55,12.70
2013,05,04,07,56,12.90
2013,05,04,07,57,13.10
2013,05,04,07,58,13.40
2013,05,04,07,59,13.60
2013,05,04,08,00,13.90
2013,05,04,08,01,14.10
2013,05,04,08,02,14.40
2013,05,04,08,03,14.60
2013,05,04,08,04,14.70
2013,05,04,08,05,14.90
2013,05,04,08,06,15.00
2013,05,04,08,07,15.00
2013,05,04,08,08,15.00
2013,05,04,08,09,15.00
2013,05,04,08,10,15.00
2013,05,04,08,11,15.10
2013,05,04,08,12,15.20
2013,05,04,08,13,15.20
2013,05,04,08,14,15.30
2013,05,04,08,15,15.40
2013,05,04,08,16,15.40
2013,05,04,08,17,15.50
2013,05,04,08,18,15.50
2013,05,04,08,19,15.50
2013,05,04,08,20,15.60
2013,05,04,08,21,15.60
2013,05,04,08,22,15.60
2013,05,04,08,23,15.70
2013,05,04,08,24,15.70
2013,05,04,08,25,15.80
2013,05,04,08,26,15.80
2013,05,04,08,27,15.90
2013,05,04,08,28,15.90
2013,05,04,08,29,15.90
2013,05,04,08,30,16.00
2013,05,04,08,31,16.10
2013,05,04,08,32,16.10
2013,05,04,08,33,16.20
2013,05,04,08,34,16.20
2013,05,04,08,35,16.20
2013,05,04,08,36,16.30
2013,05,04,08,37,16.30
2013,05,04,08,38,16.40
2013,05,04,08,39,16.50
2013,05,04,08,40,16.50
2013,05,04,08,41,16.60
2013,05,04,08,42,16.60
2013,05,04,08,43,16.60
2013,05,04,08,44,16.50
2013,05,04,08,45,16.50
2013,05,04,08,46,16.40
2013,05,04,08,47,16.30
2013,05,04,08,48,16.20
2013,05,04,08,49,16.20
2013,05,04,08,50,16.10
2013,05,04,08,51,16.10
2013,05,04,08,52,16.00
2013,05,04,08,53,16.00
2013,05,04,08,54,15.90
2013,05,04,08,55,15.80
2013,05,04,08,56,15.80
2013,05,04,08,57,15.80
2013,05,04,08,58,15.80
2013,05,04,08,59,15.90
2013,05,04,09,00,15.90
2013,05,04,09,01,16.00
2013,05,04,09,02,16.00
2013,05,04,09,03,16.10
2013,05,04,09,04,16.10
2013,05,04,09,05,16.10
2013,05,04,09,06,16.20
2013,05,04,09,07,16.20
2013,05,04,09,08,16.20
2013,05,04,09,09,16.20
2013,05,04,09,10,16.10
2013,05,04,09,11,16.10
2013,05,04,09,12,16.10
2013,05,04,09,13,16.00
2013,05,04,09,14,16.00
2013,05,04,09,15,16.00
2013,05,04,09,16,16.00
2013,05,04,09,17,16.10
2013,05,04,09,18,16.10
2013,05,04,09,19,16.10
2013,05,04,09,20,16.10
2013,05,04,09,21,16.10
2013,05,04,09,22,16.10
2013,05,04,09,23,16.10
2013,05,04,09,24,16.10
2013,05,04,09,25,16.20
2013,05,04,09,26,16.20
2013,05,04,09,27,16.20
2013,05,04,09,28,16.20
2013,05,04,09,29,16.20
2013,05,04,09,30,16.20
2013,05,04,09,31,16.20
2013,05,04,09,32,16.20
2013,05,04,09,33,16.10
2013,05,04,09,34,16.10
2013,05,04,09,35,16.10
2013,05,04,09,36,16.10
2013,05,04,09,37,16.10
2013,05,04,09,38,16.10
2013,05,04,09,39,16.10
2013,05,04,09,40,16.10
2013,05,04,09,41,16.10
2013,05,04,09,42,16.10
2013,05,04,09,43,16.20
2013,05,04,09,44,16.30
2013,05,04,09,45,16.40
2013,05,04,09,46,16.40
2013,05,04,09,47,16.40
2013,05,04,09,48,16.40
2013,05,04,09,49,16.40
2013,05,04,09,50,16.40
2013,05,04,09,51,16.40
2013,05,04,09,52,16.40
2013,05,04,09,53,16.50
2013,05,04,09,54,16.50
2013,05,04,09,55,16.50
2013,05,04,09,56,16.50
2013,05,04,09,57,16.50
2013,05,04,09,58,16.60
2013,05,04,09,59,16.60
2013,05,04,10,00,16.80
2013,05,04,10,01,16.80
2013,05,04,10,02,16.80
2013,05,04,10,03,16.80
2013,05,04,10,04,16.90
2013,05,04,10,05,16.90
2013,05,04,10,06,16.80
2013,05,04,10,07,16.80
2013,05,04,10,08,16.80
2013,05,04,10,09,16.80
2013,05,04,10,10,16.80
2013,05,04,10,11,16.90
2013,05,04,10,12,16.90
2013,05,04,10,13,17.00
2013,05,04,10,14,17.00
2013,05,04,10,15,17.00
2013,05,04,10,16,17.10
2013,05,04,10,17,17.10
2013,05,04,10,18,17.00
2013,05,04,10,19,17.00
2013,05,04,10,20,16.90
2013,05,04,10,21,16.90
2013,05,04,10,22,17.00
2013,05,04,10,23,17.00
2013,05,04,10,24,16.90
2013,05,04,10,25,16.90
2013,05,04,10,26,16.90
2013,05,04,10,27,17.00
2013,05,04,10,28,17.10
2013,05,04,10,29,17.10
2013,05,04,10,30,17.10
2013,05,04,10,31,17.10
2013,05,04,10,32,17.10
2013,05,04,10,33,17.20
2013,05,04,10,34,17.30
2013,05,04,10,35,17.40
2013,05,04,10,36,17.40
2013,05,04,10,37,17.50
2013,05,04,10,38,17.60
2013,05,04,10,39,17.60
2013,05,04,10,40,17.50
2013,05,04,10,41,17.40
2013,05,04,10,42,17.40
2013,05,04,10,43,17.40
2013,05,04,10,44,17.50
2013,05,04,10,45,17.50
2013,05,04,10,46,17.60
2013,05,04,10,47,17.50
2013,05,04,10,48,17.50
2013,05,04,10,49,17.60
2013,05,04,10,50,17.60
2013,05,04,10,51,17.70
2013,05,04,10,52,17.80
2013,05,04,10,53,17.90
2013,05,04,10,54,17.90
2013,05,04,10,55,18.00
2013,05,04,10,56,18.10
2013,05,04,10,57,18.10
2013,05,04,10,58,18.20
2013,05,04,10,59,18.30
2013,05,04,11,00,18.40
2013,05,04,11,01,18.50
2013,05,04,11,02,18.60
2013,05,04,11,03,18.70
2013,05,04,11,04,18.70
2013,05,04,11,05,18.70
2013,05,04,11,06,18.70
2013,05,04,11,07,18.70
2013,05,04,11,08,18.70
2013,05,04,11,09,18.70
2013,05,04,11,10,18.70
2013,05,04,11,11,18.80
2013,05,04,11,12,18.80
2013,05,04,11,13,18.90
2013,05,04,11,14,18.90
2013,05,04,11,15,18.90
2013,05,04,11,16,18.90
2013,05,04,11,17,18.90
2013,05,04,11,18,19.00
2013,05,04,11,19,19.10
2013,05,04,11,20,19.10
2013,05,04,11,21,19.10
2013,05,04,11,22,19.10
2013,05,04,11,23,19.10
2013,05,04,11,24,19.00
2013,05,04,11,25,18.90
2013,05,04,11,26,19.00
2013,05,04,11,27,19.00
2013,05,04,11,28,19.00
2013,05,04,11,29,19.10
2013,05,04,11,30,19.00
2013,05,04,11,31,19.10
2013,05,04,11,32,19.10
2013,05,04,11,33,19.20
2013,05,04,11,34,19.20
2013,05,04,11,35,19.20
2013,05,04,11,36,19.10
2013,05,04,11,37,19.10
2013,05,04,11,38,19.10
2013,05,04,11,39,19.10
2013,05,04,11,40,19.10
2013,05,04,11,41,19.10
2013,05,04,11,42,19.10
2013,05,04,11,43,19.20
2013,05,04,11,44,19.20
2013,05,04,11,45,19.30
2013,05,04,11,46,19.40
2013,05,04,11,47,19.40
2013,05,04,11,48,19.40
2013,05,04,11,49,19.40
2013,05,04,11,50,19.40
2013,05,04,11,51,19.40
2013,05,04,11,52,19.40
2013,05,04,11,53,19.40
2013,05,04,11,54,19.40
2013,05,04,11,55,19.40
2013,05,04,11,56,19.40
2013,05,04,11,57,19.50
2013,05,04,11,58,19.50
2013,05,04,11,59,19.50
2013,05,04,12,00,19.40
2013,05,04,12,01,19.40
2013,05,04,12,02,19.40
2013,05,04,12,03,19.40
2013,05,04,12,04,19.40
2013,05,04,12,05,19.40
2013,05,04,12,06,19.40
2013,05,04,12,07,19.50
2013,05,04,12,08,19.60
2013,05,04,12,09,19.60
2013,05,04,12,10,19.60
2013,05,04,12,11,19.60
2013,05,04,12,12,19.60
2013,05,04,12,13,19.60
2013,05,04,12,14,19.70
2013,05,04,12,15,19.70
2013,05,04,12,16,19.80
2013,05,04,12,17,19.80
2013,05,04,12,18,19.90
2013,05,04,12,19,19.90
2013,05,04,12,20,20.00
2013,05,04,12,21,20.10
2013,05,04,12,22,20.10
2013,05,04,12,23,20.10
2013,05,04,12,24,20.10
2013,05,04,12,25,20.10
2013,05,04,12,26,20.20
2013,05,04,12,27,20.20
2013,05,04,12,28,20.30
2013,05,04,12,29,20.30
2013,05,04,12,30,20.40
2013,05,04,12,31,20.50
2013,05,04,12,32,20.50
2013,05,04,12,33,20.60
2013,05,04,12,34,20.70
2013,05,04,12,35,20.70
2013,05,04,12,36,20.60
2013,05,04,12,37,20.50
2013,05,04,12,38,20.40
2013,05,04,12,39,20.30
2013,05,04,12,40,20.30
2013,05,04,12,41,20.20
2013,05,04,12,42,20.10
2013,05,04,12,43,20.10
2013,05,04,12,44,20.00
2013,05,04,12,45,20.00
2013,05,04,12,46,20.00
2013,05,04,12,47,20.10
2013,05,04,12,48,20.10
2013,05,04,12,49,20.10
2013,05,04,12,50,20.20
2013,05,04,12,51,20.20
2013,05,04,12,52,20.20
2013,05,04,12,53,20.20
2013,05,04,12,54,20.30
2013,05,04,12,55,20.40
2013,05,04,12,56,20.40
2013,05,04,12,57,20.30
2013,05,04,12,58,20.30
2013,05,04,12,59,20.30
2013,05,04,13,00,20.30
2013,05,04,13,01,20.30
2013,05,04,13,02,20.30
2013,05,04,13,03,20.30
2013,05,04,13,04,20.40
2013,05,04,13,05,20.40
2013,05,04,13,06,20.30
2013,05,04,13,07,20.40
2013,05,04,13,08,20.50
2013,05,04,13,09,20.60
2013,05,04,13,10,20.60
2013,05,04,13,11,20.60
2013,05,04,13,12,20.60
2013,05,04,13,13,20.70
2013,05,04,13,14,20.80
2013,05,04,13,15,20.90
2013,05,04,13,16,21.00
2013,05,04,13,17,21.00
2013,05,04,13,18,21.00
2013,05,04,13,19,21.10
2013,05,04,13,20,21.10
2013,05,04,13,21,21.00
2013,05,04,13,22,21.10
2013,05,04,13,23,21.10
2013,05,04,13,24,21.10
2013,05,04,13,25,21.10
2013,05,04,13,26,21.10
2013,05,04,13,27,21.10
2013,05,04,13,28,21.00
2013,05,04,13,29,21.10
2013,05,04,13,30,21.20
2013,05,04,13,31,21.30
2013,05,04,13,32,21.40
2013,05,04,13,33,21.40
2013,05,04,13,34,21.40
2013,05,04,13,35,21.40
2013,05,04,13,36,21.40
2013,05,04,13,37,21.40
2013,05,04,13,38,21.40
2013,05,04,13,39,21.50
2013,05,04,13,40,21.50
2013,05,04,13,41,21.50
2013,05,04,13,42,21.60
2013,05,04,13,43,21.60
2013,05,04,13,44,21.60
2013,05,04,13,45,21.60
2013,05,04,13,46,21.60
2013,05,04,13,47,21.70
2013,05,04,13,48,21.80
2013,05,04,13,49,21.80
2013,05,04,13,50,21.80
2013,05,04,13,51,21.70
2013,05,04,13,52,21.80
2013,05,04,13,53,21.80
2013,05,04,13,54,21.80
2013,05,04,13,55,21.80
2013,05,04,13,56,21.80
2013,05,04,13,57,21.80
2013,05,04,13,58,21.80
2013,05,04,13,59,21.80
2013,05,04,14,00,21.80
2013,05,04,14,01,21.80
2013,05,04,14,02,22.00
2013,05,04,14,03,22.00
2013,05,04,14,04,22.10
2013,05,04,14,05,22.20
2013,05,04,14,06,22.20
2013,05,04,14,07,22.20
2013,05,04,14,08,22.30
2013,05,04,14,09,22.30
2013,05,04,14,10,22.30
2013,05,04,14,11,22.30
2013,05,04,14,12,22.30
2013,05,04,14,13,22.30
2013,05,04,14,14,22.40
2013,05,04,14,15,22.40
2013,05,04,14,16,22.50
2013,05,04,14,17,22.60
2013,05,04,14,18,22.60
2013,05,04,14,19,22.60
2013,05,04,14,20,22.60
2013,05,04,14,21,22.50
2013,05,04,14,22,22.40
2013,05,04,14,23,22.40
2013,05,04,14,24,22.30
2013,05,04,14,25,22.30
2013,05,04,14,26,22.20
2013,05,04,14,27,22.20
2013,05,04,14,28,22.20
2013,05,04,14,29,22.20
2013,05,04,14,30,22.20
2013,05,04,14,31,22.20
2013,05,04,14,32,22.30
2013,05,04,14,33,22.30
2013,05,04,14,34,22.30
2013,05,04,14,35,22.30
2013,05,04,14,36,22.30
2013,05,04,14,37,22.30
2013,05,04,14,38,22.40
2013,05,04,14,39,22.40
2013,05,04,14,40,22.40
2013,05,04,14,41,22.30
2013,05,04,14,42,22.30
2013,05,04,14,43,22.30
2013,05,04,14,44,22.40
2013,05,04,14,45,22.50
2013,05,04,14,46,22.50
2013,05,04,14,47,22.50
2013,05,04,14,48,22.60
2013,05,04,14,49,22.50
2013,05,04,14,50,22.50
2013,05,04,14,51,22.40
2013,05,04,14,52,22.40
2013,05,04,14,53,22.50
2013,05,04,14,54,22.50
2013,05,04,14,55,22.60
2013,05,04,14,56,22.60
2013,05,04,14,57,22.70
2013,05,04,14,58,22.70
2013,05,04,14,59,22.80
2013,05,04,15,00,22.80
2013,05,04,15,01,22.80
2013,05,04,15,02,22.80
2013,05,04,15,03,22.80
2013,05,04,15,04,22.80
2013,05,04,15,05,22.80
2013,05,04,15,06,22.70
2013,05,04,15,07,22.70
2013,05,04,15,08,22.60
2013,05,04,15,09,22.60
2013,05,04,15,10,22.60
2013,05,04,15,11,22.50
2013,05,04,15,12,22.50
2013,05,04,15,13,22.60
2013,05,04,15,14,22.70
2013,05,04,15,15,22.70
2013,05,04,15,16,22.70
2013,05,04,15,17,22.70
2013,05,04,15,18,22.70
2013,05,04,15,19,22.70
2013,05,04,15,20,22.70
2013,05,04,15,21,22.80
2013,05,04,15,22,22.90
2013,05,04,15,23,23.00
2013,05,04,15,24,23.10
2013,05,04,15,25,23.10
2013,05,04,15,26,23.20
2013,05,04,15,27,23.30
2013,05,04,15,28,23.30
2013,05,04,15,29,23.40
2013,05,04,15,30,23.30
2013,05,04,15,31,23.30
2013,05,04,15,32,23.30
2013,05,04,15,33,23.30
2013,05,04,15,34,23.30
2013,05,04,15,35,23.30
2013,05,04,15,36,23.30
2013,05,04,15,37,23.30
2013,05,04,15,38,23.40
2013,05,04,15,39,23.40
2013,05,04,15,40,23.40
2013,05,04,15,41,23.40
2013,05,04,15,42,23.40
2013,05,04,15,43,23.40
2013,05,04,15,44,23.40
2013,05,04,15,45,23.50
2013,05,04,15,46,23.50
2013,05,04,15,47,23.60
2013,05,04,15,48,23.60
2013,05,04,15,49,23.70
2013,05,04,15,50,23.70
2013,05,04,15,51,23.70
2013,05,04,15,52,23.70
2013,05,04,15,53,23.80
2013,05,04,15,54,23.80
2013,05,04,15,55,23.80
2013,05,04,15,56,23.80
2013,05,04,15,57,23.80
2013,05,04,15,58,23.80
2013,05,04,15,59,23.80
2013,05,04,16,00,23.80
2013,05,04,16,01,23.80
2013,05,04,16,02,23.80
2013,05,04,16,03,23.80
2013,05,04,16,04,23.80
2013,05,04,16,05,23.80
2013,05,04,16,06,23.80
2013,05,04,16,07,23.90
2013,05,04,16,08,24.00
2013,05,04,16,09,24.10
2013,05,04,16,10,24.10
2013,05,04,16,11,24.10
2013,05,04,16,12,24.20
2013,05,04,16,13,24.20
2013,05,04,16,14,24.20
2013,05,04,16,15,24.10
2013,05,04,16,16,24.10
2013,05,04,16,17,24.20
2013,05,04,16,18,24.20
2013,05,04,16,19,24.20
2013,05,04,16,20,24.20
2013,05,04,16,21,24.20
2013,05,04,16,22,24.30
2013,05,04,16,23,24.40
2013,05,04,16,24,24.40
2013,05,04,16,25,24.40
2013,05,04,16,26,24.40
2013,05,04,16,27,24.50
2013,05,04,16,28,24.60
2013,05,04,16,29,24.60
2013,05,04,16,30,24.60
2013,05,04,16,31,24.60
2013,05,04,16,32,24.60
2013,05,04,16,33,24.60
2013,05,04,16,34,24.70
2013,05,04,16,35,24.60
2013,05,04,16,36,24.60
2013,05,04,16,37,24.60
2013,05,04,16,38,24.60
2013,05,04,16,39,24.60
2013,05,04,16,40,24.60
2013,05,04,16,41,24.70
2013,05,04,16,42,24.80
2013,05,04,16,43,24.80
2013,05,04,16,44,24.90
2013,05,04,16,45,24.90
2013,05,04,16,46,24.90
2013,05,04,16,47,24.90
2013,05,04,16,48,24.90
2013,05,04,16,49,24.80
2013,05,04,16,50,24.80
2013,05,04,16,51,24.80
2013,05,04,16,52,24.80
2013,05,04,16,53,24.80
2013,05,04,16,54,24.80
2013,05,04,16,55,24.80
2013,05,04,16,56,24.80
2013,05,04,16,57,24.80
2013,05,04,16,58,24.80
2013,05,04,16,59,24.90
2013,05,04,17,00,24.90
2013,05,04,17,01,25.00
2013,05,04,17,02,25.00
2013,05,04,17,03,25.20
2013,05,04,17,04,25.30
2013,05,04,17,05,25.20
2013,05,04,17,06,25.30
2013,05,04,17,07,25.30
2013,05,04,17,08,25.30
2013,05,04,17,09,25.30
2013,05,04,17,10,25.20
2013,05,04,17,11,25.10
2013,05,04,17,12,25.00
2013,05,04,17,13,25.00
2013,05,04,17,14,24.90
2013,05,04,17,15,24.90
2013,05,04,17,16,24.90
2013,05,04,17,17,24.90
2013,05,04,17,18,24.90
2013,05,04,17,19,24.90
2013,05,04,17,20,24.80
2013,05,04,17,21,24.70
2013,05,04,17,22,24.70
2013,05,04,17,23,24.60
2013,05,04,17,24,24.60
2013,05,04,17,25,24.60
2013,05,04,17,26,24.60
2013,05,04,17,27,24.60
2013,05,04,17,28,24.60
2013,05,04,17,29,24.70
2013,05,04,17,30,24.70
2013,05,04,17,31,24.80
2013,05,04,17,32,24.80
2013,05,04,17,33,24.80
2013,05,04,17,34,24.80
2013,05,04,17,35,24.80
2013,05,04,17,36,24.80
2013,05,04,17,37,24.80
2013,05,04,17,38,24.80